AAL4 KLAX-KJFK

Flight info

Callsign AAL4
Flight time 4h 40m
Altitude 39000
Route ORCKA5 BEALE J146 DVC KD51W OATHE KD54A MCI RBS BVT JOEBU DORET Q29 JHW Q476 WLKES PUCKY1
Aircraft B772/H-SDE2E3FGHIJ5LORVWXY/LB1D1

Departure

Time 2026-05-09 00:31
Airport Los Angeles International Airport (KLAX)

Arrival

Time 2026-05-09 05:11
Airport John F. Kennedy International Airport (KJFK)
Time Latitude Longitude Altitude Speed Heading
2026-05-08 23:22 33.94089 -118.40937 132 ft 0 kts 263°
2026-05-09 00:11 33.94090 -118.40928 132 ft 2 kts 263°
2026-05-09 00:11 33.94092 -118.40910 132 ft 2 kts 263°
2026-05-09 00:12 33.94094 -118.40893 132 ft 2 kts 263°
2026-05-09 00:12 33.94096 -118.40874 132 ft 2 kts 263°
2026-05-09 00:12 33.94098 -118.40857 132 ft 1 kts 263°
2026-05-09 00:12 33.94099 -118.40846 132 ft 2 kts 239°
2026-05-09 00:13 33.94110 -118.40835 131 ft 2 kts 187°
2026-05-09 00:13 33.94117 -118.40835 131 ft 1 kts 172°
2026-05-09 00:13 33.94120 -118.40836 131 ft 0 kts 173°
2026-05-09 00:23 33.94052 -118.40824 132 ft 21 kts 172°
2026-05-09 00:24 33.93979 -118.40810 133 ft 7 kts 166°
2026-05-09 00:24 33.93914 -118.40784 133 ft 12 kts 160°
2026-05-09 00:24 33.93862 -118.40760 133 ft 9 kts 163°
2026-05-09 00:24 33.93785 -118.40762 133 ft 0 kts 183°
2026-05-09 00:25 33.93778 -118.40763 133 ft 2 kts 185°
2026-05-09 00:26 33.93773 -118.40768 133 ft 1 kts 234°
2026-05-09 00:26 33.93789 -118.40771 133 ft 0 kts 34°
2026-05-09 00:26 33.93808 -118.40700 133 ft 21 kts 82°
2026-05-09 00:26 33.93829 -118.40482 129 ft 27 kts 83°
2026-05-09 00:27 33.93853 -118.40249 127 ft 28 kts 83°
2026-05-09 00:27 33.93879 -118.40023 124 ft 22 kts 82°
2026-05-09 00:27 33.93899 -118.39825 120 ft 25 kts 84°
2026-05-09 00:27 33.93919 -118.39602 117 ft 27 kts 84°
2026-05-09 00:28 33.93944 -118.39372 114 ft 29 kts 81°
2026-05-09 00:28 33.93970 -118.39125 113 ft 30 kts 83°
2026-05-09 00:28 33.93999 -118.38877 110 ft 28 kts 83°
2026-05-09 00:28 33.94024 -118.38638 111 ft 29 kts 84°
2026-05-09 00:29 33.94048 -118.38393 109 ft 30 kts 83°
2026-05-09 00:29 33.94073 -118.38142 107 ft 26 kts 86°
2026-05-09 00:29 33.94043 -118.38013 107 ft 14 kts 148°
2026-05-09 00:29 33.93973 -118.38036 107 ft 9 kts 259°
2026-05-09 00:30 33.93963 -118.38118 107 ft 10 kts 264°
2026-05-09 00:30 33.93962 -118.38123 107 ft 0 kts 264°
2026-05-09 00:30 33.93949 -118.38274 107 ft 58 kts 263°
2026-05-09 00:30 33.93861 -118.39120 113 ft 144 kts 264°
2026-05-09 00:31 33.93698 -118.40533 423 ft 190 kts 259°
2026-05-09 00:31 33.93470 -118.42103 1458 ft 188 kts 263°
2026-05-09 00:31 33.93354 -118.43515 2379 ft 165 kts 265°
2026-05-09 00:31 33.93248 -118.44904 2853 ft 175 kts 266°
2026-05-09 00:32 33.93138 -118.46483 3009 ft 207 kts 264°
2026-05-09 00:32 33.92738 -118.48199 3505 ft 223 kts 250°
2026-05-09 00:32 33.92131 -118.50012 4043 ft 239 kts 249°
2026-05-09 00:32 33.91471 -118.51918 4563 ft 255 kts 249°
2026-05-09 00:33 33.90775 -118.53920 5158 ft 267 kts 249°
2026-05-09 00:33 33.90054 -118.55995 5958 ft 272 kts 249°
2026-05-09 00:33 33.89320 -118.58109 6747 ft 276 kts 249°
2026-05-09 00:33 33.88582 -118.60232 7506 ft 280 kts 249°
2026-05-09 00:34 33.87693 -118.62310 8262 ft 286 kts 233°
2026-05-09 00:34 33.86140 -118.63841 8987 ft 292 kts 206°
2026-05-09 00:34 33.84186 -118.64379 9715 ft 297 kts 179°
2026-05-09 00:34 33.82162 -118.63789 10372 ft 305 kts 153°
2026-05-09 00:35 33.80522 -118.62124 10740 ft 322 kts 124°
2026-05-09 00:35 33.79692 -118.59593 11086 ft 338 kts 96°
2026-05-09 00:35 33.79957 -118.56709 11446 ft 354 kts 69°
2026-05-09 00:35 33.81300 -118.54216 11815 ft 367 kts 44°
2026-05-09 00:36 33.83315 -118.52248 12218 ft 380 kts 36°
2026-05-09 00:36 33.85477 -118.50366 12795 ft 388 kts 35°
2026-05-09 00:36 33.87689 -118.48451 13486 ft 392 kts 35°
2026-05-09 00:36 33.89911 -118.46525 14173 ft 395 kts 35°
2026-05-09 00:37 33.92091 -118.44498 14826 ft 400 kts 41°
2026-05-09 00:37 33.93970 -118.42052 15427 ft 406 kts 52°
2026-05-09 00:37 33.95617 -118.39245 16087 ft 410 kts 55°
2026-05-09 00:37 33.97223 -118.36407 16748 ft 414 kts 55°
2026-05-09 00:38 33.98841 -118.33542 17379 ft 418 kts 55°
2026-05-09 00:38 34.00481 -118.30638 17869 ft 423 kts 55°
2026-05-09 00:38 34.02150 -118.27689 17958 ft 424 kts 55°
2026-05-09 00:38 34.03808 -118.24761 17964 ft 423 kts 55°
2026-05-09 00:39 34.05461 -118.21841 17972 ft 422 kts 55°
2026-05-09 00:39 34.07113 -118.18923 17971 ft 422 kts 55°
2026-05-09 00:39 34.08772 -118.15989 17974 ft 422 kts 55°
2026-05-09 00:39 34.10427 -118.13061 17980 ft 422 kts 55°
2026-05-09 00:40 34.12076 -118.10140 17978 ft 422 kts 55°
2026-05-09 00:40 34.13721 -118.07224 17984 ft 422 kts 55°
2026-05-09 00:40 34.15364 -118.04308 17998 ft 422 kts 55°
2026-05-09 00:41 34.18705 -117.98374 18610 ft 432 kts 55°
2026-05-09 00:41 34.20386 -117.95384 19505 ft 429 kts 55°
2026-05-09 00:41 34.22057 -117.92409 20227 ft 430 kts 55°
2026-05-09 00:41 34.23722 -117.89443 20784 ft 436 kts 54°
2026-05-09 00:42 34.25439 -117.86383 21376 ft 440 kts 54°
2026-05-09 00:42 34.27150 -117.83331 21980 ft 443 kts 54°
2026-05-09 00:42 34.28888 -117.80226 22588 ft 447 kts 54°
2026-05-09 00:42 34.30642 -117.77091 23168 ft 451 kts 54°
2026-05-09 00:43 34.32402 -117.73942 23726 ft 454 kts 54°
2026-05-09 00:43 34.34155 -117.70763 24292 ft 458 kts 57°
2026-05-09 00:43 34.35622 -117.67323 24809 ft 463 kts 65°
2026-05-09 00:43 34.36828 -117.63730 25346 ft 467 kts 66°
2026-05-09 00:44 34.38024 -117.60066 25877 ft 470 kts 66°
2026-05-09 00:44 34.39215 -117.56409 26346 ft 474 kts 66°
2026-05-09 00:44 34.40437 -117.52654 26829 ft 477 kts 66°
2026-05-09 00:44 34.41650 -117.48926 27307 ft 481 kts 66°
2026-05-09 00:45 34.42877 -117.45151 27754 ft 484 kts 66°
2026-05-09 00:45 34.44112 -117.41349 28219 ft 487 kts 66°
2026-05-09 00:45 34.45347 -117.37540 28676 ft 490 kts 66°
2026-05-09 00:45 34.46598 -117.33681 29107 ft 494 kts 67°
2026-05-09 00:46 34.47847 -117.29823 29501 ft 497 kts 66°
2026-05-09 00:46 34.49111 -117.25911 30016 ft 498 kts 66°
2026-05-09 00:46 34.50363 -117.22031 30729 ft 493 kts 66°
2026-05-09 00:46 34.51608 -117.18167 31429 ft 489 kts 66°
2026-05-09 00:47 34.52835 -117.14357 32054 ft 485 kts 66°
2026-05-09 00:47 34.54275 -117.10695 32595 ft 481 kts 57°
2026-05-09 00:47 34.56142 -117.07365 33119 ft 476 kts 49°
2026-05-09 00:47 34.58234 -117.04263 33646 ft 474 kts 47°
2026-05-09 00:48 34.60412 -117.01093 34207 ft 473 kts 47°
2026-05-09 00:48 34.62516 -116.98029 34887 ft 469 kts 47°
2026-05-09 00:48 34.64633 -116.94942 35606 ft 464 kts 47°
2026-05-09 00:48 34.66702 -116.91922 36296 ft 458 kts 47°
2026-05-09 00:49 34.68734 -116.88953 36853 ft 454 kts 47°
2026-05-09 00:49 34.70766 -116.85983 37252 ft 453 kts 47°
2026-05-09 00:49 34.72796 -116.83012 37514 ft 454 kts 47°
2026-05-09 00:49 34.74817 -116.80051 37850 ft 454 kts 47°
2026-05-09 00:50 34.76821 -116.77113 38239 ft 451 kts 47°
2026-05-09 00:50 34.78813 -116.74190 38599 ft 449 kts 46°
2026-05-09 00:50 34.80815 -116.71249 38939 ft 447 kts 46°
2026-05-09 00:50 34.82784 -116.68355 39020 ft 448 kts 47°
2026-05-09 00:51 34.86783 -116.62543 38993 ft 447 kts 44°
2026-05-09 00:51 34.90995 -116.56960 38963 ft 447 kts 44°
2026-05-09 00:52 34.95209 -116.51363 38948 ft 448 kts 44°
2026-05-09 00:52 34.99422 -116.45741 38922 ft 449 kts 44°
2026-05-09 00:53 35.03617 -116.40124 38915 ft 448 kts 44°
2026-05-09 00:53 35.07806 -116.34501 38914 ft 448 kts 44°
2026-05-09 00:54 35.11988 -116.28874 38931 ft 448 kts 44°
2026-05-09 00:54 35.16160 -116.23251 38942 ft 447 kts 44°
2026-05-09 00:55 35.20369 -116.17569 38937 ft 448 kts 44°
2026-05-09 00:55 35.24541 -116.11928 38927 ft 449 kts 44°
2026-05-09 00:56 35.28700 -116.06292 38913 ft 450 kts 44°
2026-05-09 00:56 35.32885 -116.00613 38916 ft 451 kts 44°
2026-05-09 00:57 35.37079 -115.94911 38954 ft 449 kts 44°
2026-05-09 00:57 35.41268 -115.89209 38991 ft 449 kts 44°
2026-05-09 00:58 35.45435 -115.83525 39013 ft 450 kts 44°
2026-05-09 00:58 35.49620 -115.77808 39021 ft 451 kts 44°
2026-05-09 00:59 35.53785 -115.72107 39031 ft 451 kts 44°
2026-05-09 00:59 35.57983 -115.66354 39039 ft 452 kts 44°
2026-05-09 01:00 35.62160 -115.60618 39049 ft 450 kts 44°
2026-05-09 01:00 35.66347 -115.54859 39059 ft 453 kts 44°
2026-05-09 01:01 35.70529 -115.49097 39070 ft 452 kts 44°
2026-05-09 01:01 35.74716 -115.43316 39058 ft 452 kts 44°
2026-05-09 01:02 35.78899 -115.37533 39026 ft 454 kts 44°
2026-05-09 01:02 35.83098 -115.31715 38993 ft 453 kts 45°
2026-05-09 01:03 35.87262 -115.25937 38961 ft 453 kts 45°
2026-05-09 01:03 35.91471 -115.20085 38938 ft 453 kts 45°
2026-05-09 01:04 35.95677 -115.14230 38925 ft 454 kts 45°
2026-05-09 01:04 35.99852 -115.08406 38920 ft 455 kts 45°
2026-05-09 01:05 36.04034 -115.02562 38921 ft 454 kts 45°
2026-05-09 01:06 36.10278 -114.93816 38903 ft 453 kts 45°
2026-05-09 01:06 36.14433 -114.87987 38910 ft 454 kts 45°
2026-05-09 01:07 36.18241 -114.81726 38909 ft 461 kts 57°
2026-05-09 01:07 36.20783 -114.74377 38932 ft 467 kts 65°
2026-05-09 01:08 36.23061 -114.66924 38943 ft 467 kts 65°
2026-05-09 01:08 36.25352 -114.59409 38961 ft 467 kts 65°
2026-05-09 01:09 36.27636 -114.51898 38956 ft 467 kts 65°
2026-05-09 01:09 36.29916 -114.44380 38962 ft 467 kts 65°
2026-05-09 01:10 36.32188 -114.36873 38971 ft 469 kts 65°
2026-05-09 01:10 36.34479 -114.29282 38978 ft 468 kts 65°
2026-05-09 01:11 36.36738 -114.21775 38981 ft 468 kts 65°
2026-05-09 01:11 36.39009 -114.14211 38966 ft 468 kts 66°
2026-05-09 01:12 36.41276 -114.06638 38967 ft 468 kts 66°
2026-05-09 01:12 36.43525 -113.99104 38993 ft 467 kts 65°
2026-05-09 01:13 36.45782 -113.91525 39020 ft 469 kts 65°
2026-05-09 01:13 36.48024 -113.83976 39053 ft 469 kts 65°
2026-05-09 01:14 36.50275 -113.76372 39082 ft 469 kts 65°
2026-05-09 01:14 36.52514 -113.68794 39126 ft 470 kts 66°
2026-05-09 01:15 36.54762 -113.61160 39150 ft 470 kts 65°
2026-05-09 01:15 36.56998 -113.53551 39162 ft 470 kts 65°
2026-05-09 01:16 36.59223 -113.45955 39180 ft 471 kts 65°
2026-05-09 01:16 36.61449 -113.38334 39180 ft 470 kts 66°
2026-05-09 01:17 36.64796 -113.26828 39188 ft 471 kts 66°
2026-05-09 01:17 36.67002 -113.19212 39202 ft 471 kts 66°
2026-05-09 01:18 36.69209 -113.11571 39201 ft 471 kts 66°
2026-05-09 01:18 36.71426 -113.03875 39197 ft 471 kts 66°
2026-05-09 01:19 36.73624 -112.96224 39185 ft 472 kts 66°
2026-05-09 01:19 36.75817 -112.88568 39161 ft 473 kts 66°
2026-05-09 01:20 36.78018 -112.80864 39162 ft 472 kts 66°
2026-05-09 01:20 36.80210 -112.73169 39176 ft 474 kts 66°
2026-05-09 01:21 36.82414 -112.65407 39179 ft 472 kts 66°
2026-05-09 01:21 36.84595 -112.57704 39187 ft 473 kts 66°
2026-05-09 01:22 36.86779 -112.49966 39205 ft 474 kts 66°
2026-05-09 01:22 36.88952 -112.42250 39190 ft 474 kts 66°
2026-05-09 01:23 36.91119 -112.34503 39209 ft 474 kts 67°
2026-05-09 01:23 36.93291 -112.26750 39212 ft 475 kts 67°
2026-05-09 01:24 36.95466 -112.18971 39203 ft 475 kts 66°
2026-05-09 01:24 36.97644 -112.11155 39196 ft 476 kts 67°
2026-05-09 01:25 36.99806 -112.03377 39181 ft 476 kts 67°
2026-05-09 01:25 37.01978 -111.95538 39186 ft 477 kts 67°
2026-05-09 01:26 37.04131 -111.87746 39191 ft 476 kts 67°
2026-05-09 01:26 37.06275 -111.79961 39192 ft 475 kts 67°
2026-05-09 01:27 37.08419 -111.72158 39175 ft 476 kts 67°
2026-05-09 01:27 37.10560 -111.64339 39179 ft 476 kts 67°
2026-05-09 01:28 37.12699 -111.56503 39149 ft 476 kts 67°
2026-05-09 01:28 37.14824 -111.48696 39141 ft 474 kts 67°
2026-05-09 01:29 37.16946 -111.40876 39152 ft 475 kts 67°
2026-05-09 01:29 37.19059 -111.33068 39159 ft 475 kts 68°
2026-05-09 01:30 37.21172 -111.25236 39124 ft 476 kts 68°
2026-05-09 01:30 37.23276 -111.17413 39128 ft 476 kts 68°
2026-05-09 01:31 37.25404 -111.09469 39129 ft 475 kts 68°
2026-05-09 01:31 37.27498 -111.01627 39150 ft 474 kts 68°
2026-05-09 01:32 37.29583 -110.93797 39136 ft 475 kts 68°
2026-05-09 01:32 37.31662 -110.85965 39147 ft 474 kts 68°
2026-05-09 01:33 37.33725 -110.78173 39128 ft 474 kts 68°
2026-05-09 01:33 37.35805 -110.70289 39126 ft 474 kts 68°
2026-05-09 01:34 37.37855 -110.62494 39136 ft 474 kts 68°
2026-05-09 01:34 37.39926 -110.54599 39133 ft 474 kts 68°
2026-05-09 01:35 37.41969 -110.46783 39150 ft 472 kts 68°
2026-05-09 01:35 37.44022 -110.38911 39172 ft 475 kts 68°
2026-05-09 01:36 37.46059 -110.31071 39189 ft 474 kts 68°
2026-05-09 01:36 37.48106 -110.23165 39195 ft 474 kts 68°
2026-05-09 01:37 37.50133 -110.15317 39200 ft 473 kts 68°
2026-05-09 01:37 37.52160 -110.07443 39203 ft 473 kts 68°
2026-05-09 01:38 37.54184 -109.99555 39204 ft 472 kts 68°
2026-05-09 01:38 37.56205 -109.91657 39215 ft 472 kts 68°
2026-05-09 01:39 37.58204 -109.83817 39206 ft 473 kts 68°
2026-05-09 01:39 37.60219 -109.75892 39201 ft 474 kts 68°
2026-05-09 01:40 37.62212 -109.68027 39182 ft 474 kts 68°
2026-05-09 01:40 37.64200 -109.60157 39165 ft 472 kts 68°
2026-05-09 01:41 37.66195 -109.52234 39164 ft 473 kts 68°
2026-05-09 01:41 37.68180 -109.44328 39165 ft 473 kts 68°
2026-05-09 01:42 37.70158 -109.36422 39174 ft 472 kts 68°
2026-05-09 01:42 37.72121 -109.28552 39190 ft 472 kts 69°
2026-05-09 01:43 37.74078 -109.20680 39209 ft 472 kts 69°
2026-05-09 01:43 37.76038 -109.12769 39227 ft 471 kts 69°
2026-05-09 01:44 37.77993 -109.04855 39231 ft 471 kts 69°
2026-05-09 01:44 37.79928 -108.96995 39240 ft 471 kts 69°
2026-05-09 01:45 37.81553 -108.88949 39262 ft 476 kts 74°
2026-05-09 01:45 37.82878 -108.80781 39266 ft 475 kts 74°
2026-05-09 01:46 37.84197 -108.72594 39287 ft 475 kts 74°
2026-05-09 01:46 37.85503 -108.64445 39297 ft 475 kts 74°
2026-05-09 01:47 37.86805 -108.56285 39312 ft 473 kts 74°
2026-05-09 01:47 37.88094 -108.48162 39320 ft 472 kts 74°
2026-05-09 01:48 37.89375 -108.40064 39326 ft 474 kts 74°
2026-05-09 01:48 37.90656 -108.31918 39364 ft 473 kts 75°
2026-05-09 01:49 37.91939 -108.23724 39380 ft 473 kts 75°
2026-05-09 01:49 37.93205 -108.15596 39373 ft 473 kts 75°
2026-05-09 01:50 37.94475 -108.07410 39375 ft 472 kts 75°
2026-05-09 01:50 37.95728 -107.99294 39341 ft 472 kts 75°
2026-05-09 01:51 37.96976 -107.91165 39345 ft 472 kts 75°
2026-05-09 01:51 37.98222 -107.83015 39368 ft 472 kts 75°
2026-05-09 01:52 37.99465 -107.74841 39413 ft 473 kts 75°
2026-05-09 01:52 38.00703 -107.66665 39441 ft 471 kts 75°
2026-05-09 01:53 38.01931 -107.58514 39466 ft 473 kts 75°
2026-05-09 01:53 38.03158 -107.50324 39478 ft 471 kts 75°
2026-05-09 01:54 38.04380 -107.42133 39479 ft 472 kts 74°
2026-05-09 01:54 38.05586 -107.34005 39467 ft 472 kts 75°
2026-05-09 01:55 38.06794 -107.25823 39466 ft 473 kts 75°
2026-05-09 01:55 38.07998 -107.17630 39468 ft 473 kts 75°
2026-05-09 01:56 38.09192 -107.09458 39476 ft 472 kts 75°
2026-05-09 01:56 38.10382 -107.01278 39500 ft 472 kts 75°
2026-05-09 01:57 38.11567 -106.93086 39503 ft 473 kts 75°
2026-05-09 01:57 38.12745 -106.84907 39466 ft 472 kts 75°
2026-05-09 01:58 38.13916 -106.76731 39446 ft 472 kts 75°
2026-05-09 01:58 38.15083 -106.68536 39432 ft 473 kts 75°
2026-05-09 01:59 38.16244 -106.60343 39440 ft 472 kts 75°
2026-05-09 01:59 38.17400 -106.52144 39429 ft 473 kts 75°
2026-05-09 02:00 38.18548 -106.43963 39410 ft 474 kts 75°
2026-05-09 02:00 38.19694 -106.35744 39383 ft 474 kts 75°
2026-05-09 02:01 38.20838 -106.27500 39391 ft 474 kts 75°
2026-05-09 02:01 38.21980 -106.19227 39372 ft 472 kts 75°
2026-05-09 02:02 38.23104 -106.11044 39343 ft 474 kts 75°
2026-05-09 02:02 38.24230 -106.02799 39325 ft 473 kts 75°
2026-05-09 02:03 38.25352 -105.94539 39324 ft 474 kts 75°
2026-05-09 02:03 38.26463 -105.86314 39326 ft 473 kts 75°
2026-05-09 02:04 38.27566 -105.78101 39337 ft 473 kts 75°
2026-05-09 02:04 38.28659 -105.69916 39337 ft 472 kts 75°
2026-05-09 02:05 38.29752 -105.61691 39324 ft 473 kts 75°
2026-05-09 02:05 38.30839 -105.53462 39310 ft 471 kts 75°
2026-05-09 02:06 38.31920 -105.45231 39293 ft 470 kts 75°
2026-05-09 02:07 38.33528 -105.32912 39289 ft 471 kts 76°
2026-05-09 02:07 38.34589 -105.24720 39284 ft 470 kts 75°
2026-05-09 02:08 38.35649 -105.16495 39268 ft 472 kts 75°
2026-05-09 02:08 38.36703 -105.08257 39250 ft 470 kts 75°
2026-05-09 02:09 38.37750 -105.00038 39242 ft 471 kts 76°
2026-05-09 02:09 38.38788 -104.91841 39237 ft 470 kts 76°
2026-05-09 02:10 38.39822 -104.83620 39200 ft 471 kts 75°
2026-05-09 02:10 38.40855 -104.75365 39180 ft 472 kts 75°
2026-05-09 02:11 38.41878 -104.67145 39122 ft 473 kts 75°
2026-05-09 02:11 38.42897 -104.58903 39123 ft 473 kts 75°
2026-05-09 02:12 38.43924 -104.50550 39106 ft 474 kts 75°
2026-05-09 02:12 38.44930 -104.42312 39108 ft 473 kts 75°
2026-05-09 02:13 38.45938 -104.34013 39102 ft 474 kts 76°
2026-05-09 02:13 38.46932 -104.25777 39115 ft 473 kts 76°
2026-05-09 02:14 38.47926 -104.17493 39123 ft 475 kts 76°
2026-05-09 02:14 38.48916 -104.09193 39134 ft 475 kts 76°
2026-05-09 02:15 38.49906 -104.00834 39117 ft 475 kts 76°
2026-05-09 02:15 38.51164 -103.92608 39104 ft 474 kts 71°
2026-05-09 02:16 38.52573 -103.84441 39105 ft 473 kts 72°
2026-05-09 02:16 38.53956 -103.76287 39092 ft 473 kts 72°
2026-05-09 02:17 38.55335 -103.68062 39094 ft 473 kts 72°
2026-05-09 02:17 38.56697 -103.59856 39094 ft 472 kts 72°
2026-05-09 02:18 38.58042 -103.51708 39086 ft 473 kts 72°
2026-05-09 02:18 38.59391 -103.43491 39089 ft 474 kts 72°
2026-05-09 02:19 38.60735 -103.35259 39094 ft 474 kts 71°
2026-05-09 02:19 38.62080 -103.26978 39081 ft 474 kts 72°
2026-05-09 02:20 38.63418 -103.18699 39082 ft 475 kts 72°
2026-05-09 02:20 38.64738 -103.10487 39077 ft 475 kts 72°
2026-05-09 02:21 38.66077 -103.02124 39072 ft 474 kts 72°
2026-05-09 02:21 38.67382 -102.93930 39069 ft 475 kts 72°
2026-05-09 02:22 38.68706 -102.85582 39065 ft 474 kts 72°
2026-05-09 02:22 38.70009 -102.77323 39057 ft 476 kts 72°
2026-05-09 02:23 38.71305 -102.69070 39046 ft 475 kts 72°
2026-05-09 02:23 38.72594 -102.60821 39044 ft 475 kts 72°
2026-05-09 02:24 38.73885 -102.52523 39045 ft 476 kts 72°
2026-05-09 02:24 38.75166 -102.44241 39041 ft 475 kts 72°
2026-05-09 02:25 38.76440 -102.35968 39038 ft 475 kts 72°
2026-05-09 02:25 38.77715 -102.27644 39033 ft 477 kts 72°
2026-05-09 02:26 38.78983 -102.19330 39029 ft 476 kts 72°
2026-05-09 02:26 38.80248 -102.10986 39021 ft 477 kts 72°
2026-05-09 02:27 38.81514 -102.02602 39009 ft 477 kts 72°
2026-05-09 02:27 38.82764 -101.94275 38995 ft 477 kts 72°
2026-05-09 02:28 38.84008 -101.85959 38996 ft 481 kts 72°
2026-05-09 02:28 38.85160 -101.77406 39006 ft 490 kts 76°
2026-05-09 02:29 38.85949 -101.68810 38992 ft 487 kts 76°
2026-05-09 02:29 38.86726 -101.60190 38989 ft 489 kts 76°
2026-05-09 02:30 38.87497 -101.51564 38988 ft 487 kts 76°
2026-05-09 02:30 38.88262 -101.42943 38977 ft 487 kts 76°
2026-05-09 02:31 38.89022 -101.34306 38980 ft 487 kts 77°
2026-05-09 02:31 38.89772 -101.25713 38978 ft 489 kts 77°
2026-05-09 02:32 38.90522 -101.17041 38975 ft 489 kts 77°
2026-05-09 02:32 38.91260 -101.08429 38976 ft 489 kts 77°
2026-05-09 02:33 38.91997 -100.99760 38973 ft 488 kts 77°
2026-05-09 02:33 38.92721 -100.91162 38966 ft 488 kts 77°
2026-05-09 02:34 38.93444 -100.82513 38964 ft 489 kts 77°
2026-05-09 02:34 38.94161 -100.73841 38955 ft 488 kts 77°
2026-05-09 02:35 38.94868 -100.65233 38954 ft 489 kts 77°
2026-05-09 02:35 38.95574 -100.56564 38954 ft 489 kts 77°
2026-05-09 02:36 38.96273 -100.47881 38953 ft 489 kts 77°
2026-05-09 02:36 38.96966 -100.39200 38947 ft 491 kts 77°
2026-05-09 02:37 38.97655 -100.30482 38937 ft 492 kts 77°
2026-05-09 02:37 38.98337 -100.21755 38932 ft 493 kts 77°
2026-05-09 02:38 38.99010 -100.13068 38926 ft 493 kts 77°
2026-05-09 02:38 38.99681 -100.04321 38927 ft 493 kts 77°
2026-05-09 02:39 39.00351 -99.95538 38924 ft 494 kts 77°
2026-05-09 02:39 39.01012 -99.86848 38925 ft 491 kts 77°
2026-05-09 02:40 39.01672 -99.78121 38925 ft 493 kts 77°
2026-05-09 02:40 39.02324 -99.69376 38919 ft 491 kts 77°
2026-05-09 02:41 39.02970 -99.60652 38911 ft 495 kts 78°
2026-05-09 02:41 39.03614 -99.51856 38909 ft 497 kts 77°
2026-05-09 02:42 39.04251 -99.43052 38909 ft 495 kts 77°
2026-05-09 02:42 39.04886 -99.34205 38902 ft 497 kts 78°
2026-05-09 02:43 39.05513 -99.25358 38895 ft 498 kts 78°
2026-05-09 02:43 39.06131 -99.16527 38891 ft 497 kts 78°
2026-05-09 02:44 39.06745 -99.07687 38887 ft 500 kts 78°
2026-05-09 02:44 39.07348 -98.98878 38877 ft 498 kts 78°
2026-05-09 02:45 39.07950 -98.90005 38864 ft 498 kts 78°
2026-05-09 02:45 39.08546 -98.81126 38864 ft 499 kts 78°
2026-05-09 02:46 39.09135 -98.72244 38882 ft 502 kts 78°
2026-05-09 02:46 39.09719 -98.63325 38871 ft 503 kts 79°
2026-05-09 02:47 39.10298 -98.54383 38896 ft 503 kts 79°
2026-05-09 02:47 39.10870 -98.45437 38888 ft 504 kts 79°
2026-05-09 02:48 39.11438 -98.36458 38880 ft 506 kts 79°
2026-05-09 02:48 39.12000 -98.27433 38880 ft 506 kts 79°
2026-05-09 02:49 39.12555 -98.18437 38882 ft 507 kts 79°
2026-05-09 02:49 39.13105 -98.09398 38878 ft 507 kts 79°
2026-05-09 02:50 39.13650 -98.00317 38889 ft 509 kts 79°
2026-05-09 02:50 39.14187 -97.91255 38880 ft 508 kts 79°
2026-05-09 02:51 39.14716 -97.82215 38879 ft 508 kts 79°
2026-05-09 02:51 39.15241 -97.73124 38884 ft 510 kts 79°
2026-05-09 02:52 39.15756 -97.64070 38876 ft 509 kts 79°
2026-05-09 02:52 39.16265 -97.54993 38881 ft 509 kts 79°
2026-05-09 02:53 39.16768 -97.45909 38883 ft 510 kts 79°
2026-05-09 02:53 39.17265 -97.36797 38879 ft 510 kts 79°
2026-05-09 02:54 39.17754 -97.27714 38872 ft 512 kts 80°
2026-05-09 02:54 39.18234 -97.18639 38867 ft 510 kts 80°
2026-05-09 02:55 39.18712 -97.09497 38867 ft 512 kts 80°
2026-05-09 02:55 39.19180 -97.00385 38863 ft 511 kts 80°
2026-05-09 02:56 39.19643 -96.91252 38878 ft 513 kts 80°
2026-05-09 02:56 39.20096 -96.82156 38862 ft 512 kts 80°
2026-05-09 02:57 39.20546 -96.72994 38852 ft 514 kts 80°
2026-05-09 02:57 39.20988 -96.63828 38856 ft 514 kts 80°
2026-05-09 02:58 39.21426 -96.54636 38889 ft 515 kts 81°
2026-05-09 02:58 39.21856 -96.45423 38889 ft 517 kts 81°
2026-05-09 02:59 39.22278 -96.36223 38901 ft 516 kts 81°
2026-05-09 02:59 39.22695 -96.26975 38855 ft 516 kts 81°
2026-05-09 03:00 39.23102 -96.17783 38864 ft 516 kts 81°
2026-05-09 03:00 39.23504 -96.08559 38881 ft 519 kts 81°
2026-05-09 03:01 39.23898 -95.99328 38875 ft 520 kts 81°
2026-05-09 03:01 39.24288 -95.90030 38850 ft 519 kts 81°
2026-05-09 03:02 39.24671 -95.80737 38864 ft 522 kts 82°
2026-05-09 03:02 39.25046 -95.71429 38863 ft 523 kts 82°
2026-05-09 03:03 39.25414 -95.62106 38863 ft 521 kts 82°
2026-05-09 03:03 39.25779 -95.52719 38888 ft 525 kts 82°
2026-05-09 03:04 39.26133 -95.43353 38903 ft 526 kts 82°
2026-05-09 03:04 39.26483 -95.33939 38879 ft 526 kts 83°
2026-05-09 03:05 39.26825 -95.24512 38881 ft 528 kts 83°
2026-05-09 03:05 39.27158 -95.15128 38887 ft 528 kts 83°
2026-05-09 03:06 39.27486 -95.05666 38863 ft 528 kts 83°
2026-05-09 03:06 39.27806 -94.96225 38915 ft 529 kts 84°
2026-05-09 03:07 39.28120 -94.86738 38876 ft 529 kts 84°
2026-05-09 03:07 39.28424 -94.77287 38843 ft 528 kts 83°
2026-05-09 03:08 39.29647 -94.68068 38880 ft 522 kts 69°
2026-05-09 03:08 39.31752 -94.59139 38869 ft 519 kts 68°
2026-05-09 03:09 39.33826 -94.50261 38876 ft 521 kts 68°
2026-05-09 03:09 39.35889 -94.41296 38863 ft 521 kts 69°
2026-05-09 03:10 39.37936 -94.32314 38860 ft 525 kts 70°
2026-05-09 03:10 39.39977 -94.23278 38851 ft 525 kts 70°
2026-05-09 03:11 39.41992 -94.14304 38859 ft 523 kts 70°
2026-05-09 03:11 39.44014 -94.05260 38838 ft 526 kts 70°
2026-05-09 03:12 39.46028 -93.96199 38864 ft 525 kts 70°
2026-05-09 03:12 39.48042 -93.87111 38847 ft 525 kts 70°
2026-05-09 03:13 39.51062 -93.73402 38848 ft 531 kts 70°
2026-05-09 03:13 39.53059 -93.64284 38843 ft 528 kts 70°
2026-05-09 03:14 39.55053 -93.55148 38845 ft 532 kts 70°
2026-05-09 03:14 39.57048 -93.45966 38850 ft 532 kts 70°
2026-05-09 03:15 39.59047 -93.36723 38851 ft 532 kts 71°
2026-05-09 03:15 39.61025 -93.27542 38840 ft 532 kts 71°
2026-05-09 03:16 39.63007 -93.18304 38839 ft 532 kts 71°
2026-05-09 03:16 39.64977 -93.09085 38842 ft 535 kts 71°
2026-05-09 03:17 39.66962 -92.99753 38842 ft 535 kts 71°
2026-05-09 03:17 39.68928 -92.90468 38843 ft 537 kts 71°
2026-05-09 03:18 39.70895 -92.81139 38849 ft 538 kts 71°
2026-05-09 03:18 39.72864 -92.71761 38847 ft 537 kts 71°
2026-05-09 03:19 39.74814 -92.62431 38847 ft 538 kts 71°
2026-05-09 03:19 39.76762 -92.53069 38849 ft 539 kts 71°
2026-05-09 03:20 39.78701 -92.43708 38851 ft 539 kts 71°
2026-05-09 03:20 39.80650 -92.34262 38848 ft 539 kts 72°
2026-05-09 03:21 39.82575 -92.24884 38834 ft 538 kts 72°
2026-05-09 03:21 39.84499 -92.15471 38835 ft 539 kts 72°
2026-05-09 03:22 39.86418 -92.06042 38848 ft 540 kts 72°
2026-05-09 03:22 39.88324 -91.96631 38844 ft 539 kts 72°
2026-05-09 03:23 39.90221 -91.87225 38854 ft 542 kts 72°
2026-05-09 03:23 39.92123 -91.77748 38846 ft 540 kts 72°
2026-05-09 03:24 39.94014 -91.68287 38844 ft 545 kts 72°
2026-05-09 03:24 39.95905 -91.58777 38817 ft 541 kts 72°
2026-05-09 03:25 39.97776 -91.49321 38834 ft 545 kts 73°
2026-05-09 03:25 39.99653 -91.39797 38849 ft 543 kts 73°
2026-05-09 03:26 40.01534 -91.30209 38837 ft 546 kts 73°
2026-05-09 03:26 40.03394 -91.20671 38830 ft 546 kts 73°
2026-05-09 03:27 40.05254 -91.11096 38829 ft 547 kts 73°
2026-05-09 03:27 40.07124 -91.01424 38837 ft 549 kts 74°
2026-05-09 03:28 40.08977 -90.91791 38814 ft 548 kts 73°
2026-05-09 03:28 40.10814 -90.82194 38816 ft 550 kts 73°
2026-05-09 03:29 40.12660 -90.72510 38809 ft 551 kts 74°
2026-05-09 03:29 40.14493 -90.62838 38822 ft 549 kts 74°
2026-05-09 03:30 40.16329 -90.53105 38819 ft 551 kts 74°
2026-05-09 03:30 40.18135 -90.43480 38817 ft 550 kts 73°
2026-05-09 03:31 40.19960 -90.33709 38824 ft 556 kts 74°
2026-05-09 03:31 40.21777 -90.23931 38813 ft 551 kts 74°
2026-05-09 03:32 40.23574 -90.14211 38822 ft 555 kts 75°
2026-05-09 03:32 40.25371 -90.04443 38822 ft 555 kts 75°
2026-05-09 03:33 40.27175 -89.94586 38829 ft 558 kts 74°
2026-05-09 03:33 40.28972 -89.84719 38818 ft 555 kts 75°
2026-05-09 03:34 40.30745 -89.74923 38823 ft 556 kts 74°
2026-05-09 03:34 40.32510 -89.65133 38828 ft 559 kts 74°
2026-05-09 03:35 40.34276 -89.55276 38831 ft 559 kts 75°
2026-05-09 03:35 40.36047 -89.45342 38833 ft 558 kts 74°
2026-05-09 03:36 40.37786 -89.35534 38835 ft 555 kts 75°
2026-05-09 03:36 40.39529 -89.25661 38816 ft 558 kts 75°
2026-05-09 03:37 40.41273 -89.15719 38811 ft 557 kts 75°
2026-05-09 03:37 40.42997 -89.05841 38824 ft 558 kts 74°
2026-05-09 03:38 40.44708 -88.95983 38831 ft 559 kts 74°
2026-05-09 03:38 40.46432 -88.85997 38833 ft 559 kts 74°
2026-05-09 03:39 40.48138 -88.76063 38831 ft 560 kts 75°
2026-05-09 03:39 40.49841 -88.66085 38820 ft 559 kts 75°
2026-05-09 03:40 40.51536 -88.56107 38826 ft 562 kts 74°
2026-05-09 03:40 40.53219 -88.46139 38834 ft 562 kts 74°
2026-05-09 03:41 40.54896 -88.36152 38822 ft 560 kts 75°
2026-05-09 03:41 40.56533 -88.26346 38812 ft 560 kts 75°
2026-05-09 03:42 40.57822 -88.16260 38790 ft 562 kts 86°
2026-05-09 03:42 40.57832 -88.05909 38820 ft 565 kts 90°
2026-05-09 03:43 40.57692 -87.95697 38819 ft 564 kts 90°
2026-05-09 03:43 40.57514 -87.85391 38811 ft 564 kts 91°
2026-05-09 03:44 40.57310 -87.75055 38818 ft 564 kts 90°
2026-05-09 03:44 40.57089 -87.64763 38816 ft 564 kts 90°
2026-05-09 03:45 40.56855 -87.54531 38825 ft 565 kts 91°
2026-05-09 03:45 40.56609 -87.44261 38827 ft 564 kts 91°
2026-05-09 03:46 40.56349 -87.33908 38821 ft 567 kts 91°
2026-05-09 03:46 40.56081 -87.23622 38809 ft 563 kts 92°
2026-05-09 03:47 40.55804 -87.13365 38810 ft 563 kts 91°
2026-05-09 03:47 40.56328 -87.03156 38821 ft 562 kts 75°
2026-05-09 03:48 40.58093 -86.93165 38827 ft 561 kts 73°
2026-05-09 03:48 40.59894 -86.83247 38835 ft 558 kts 73°
2026-05-09 03:49 40.61681 -86.73335 38840 ft 560 kts 73°
2026-05-09 03:49 40.63454 -86.63425 38836 ft 559 kts 73°
2026-05-09 03:50 40.65244 -86.53354 38844 ft 561 kts 73°
2026-05-09 03:50 40.66990 -86.43470 38846 ft 557 kts 74°
2026-05-09 03:51 40.68744 -86.33489 38847 ft 561 kts 74°
2026-05-09 03:51 40.70502 -86.23422 38839 ft 560 kts 75°
2026-05-09 03:52 40.72239 -86.13419 38835 ft 560 kts 74°
2026-05-09 03:52 40.73979 -86.03342 38833 ft 561 kts 74°
2026-05-09 03:53 40.75703 -85.93309 38832 ft 561 kts 75°
2026-05-09 03:53 40.77412 -85.83300 38825 ft 560 kts 75°
2026-05-09 03:54 40.79106 -85.73325 38823 ft 558 kts 75°
2026-05-09 03:54 40.80784 -85.63384 38830 ft 557 kts 74°
2026-05-09 03:55 40.82463 -85.53393 38842 ft 560 kts 74°
2026-05-09 03:55 40.84134 -85.43381 38844 ft 557 kts 74°
2026-05-09 03:56 40.85787 -85.33427 38845 ft 560 kts 75°
2026-05-09 03:56 40.87452 -85.23432 38827 ft 556 kts 72°
2026-05-09 03:57 40.89632 -85.13579 38840 ft 559 kts 70°
2026-05-09 03:57 40.91836 -85.03818 38841 ft 553 kts 70°
2026-05-09 03:58 40.94008 -84.94074 38847 ft 556 kts 71°
2026-05-09 03:58 40.96182 -84.84217 38845 ft 557 kts 70°
2026-05-09 03:59 40.98324 -84.74425 38850 ft 554 kts 70°
2026-05-09 03:59 41.00478 -84.64519 38850 ft 556 kts 70°
2026-05-09 04:00 41.02600 -84.54705 38847 ft 554 kts 70°
2026-05-09 04:00 41.04723 -84.44839 38851 ft 556 kts 70°
2026-05-09 04:01 41.06815 -84.35059 38845 ft 554 kts 71°
2026-05-09 04:01 41.08897 -84.25281 38831 ft 553 kts 71°
2026-05-09 04:02 41.10990 -84.15414 38845 ft 555 kts 72°
2026-05-09 04:02 41.13055 -84.05624 38839 ft 555 kts 72°
2026-05-09 04:03 41.15131 -83.95741 38854 ft 554 kts 72°
2026-05-09 04:03 41.17176 -83.85953 38852 ft 556 kts 71°
2026-05-09 04:04 41.19237 -83.76049 38848 ft 555 kts 71°
2026-05-09 04:04 41.21266 -83.66247 38849 ft 557 kts 71°
2026-05-09 04:05 41.23311 -83.56323 38847 ft 557 kts 72°
2026-05-09 04:05 41.25329 -83.46480 38852 ft 554 kts 72°
2026-05-09 04:06 41.27365 -83.36507 38847 ft 557 kts 72°
2026-05-09 04:06 41.29373 -83.26619 38836 ft 555 kts 72°
2026-05-09 04:07 41.31383 -83.16676 38838 ft 558 kts 72°
2026-05-09 04:07 41.33375 -83.06769 38824 ft 557 kts 72°
2026-05-09 04:08 41.35362 -82.96845 38836 ft 556 kts 73°
2026-05-09 04:08 41.37345 -82.86887 38847 ft 558 kts 72°
2026-05-09 04:09 41.39308 -82.76979 38851 ft 556 kts 72°
2026-05-09 04:09 41.41264 -82.67064 38855 ft 554 kts 72°
2026-05-09 04:10 41.43210 -82.57149 38852 ft 558 kts 72°
2026-05-09 04:10 41.45155 -82.47186 38860 ft 556 kts 72°
2026-05-09 04:11 41.47084 -82.37256 38854 ft 555 kts 72°
2026-05-09 04:11 41.49010 -82.27297 38851 ft 558 kts 73°
2026-05-09 04:12 41.50922 -82.17356 38853 ft 556 kts 73°
2026-05-09 04:12 41.52838 -82.07342 38854 ft 557 kts 73°
2026-05-09 04:13 41.54725 -81.97429 38864 ft 557 kts 73°
2026-05-09 04:13 41.56618 -81.87436 38866 ft 557 kts 73°
2026-05-09 04:14 41.58507 -81.77409 38871 ft 557 kts 73°
2026-05-09 04:14 41.60384 -81.67395 38877 ft 558 kts 73°
2026-05-09 04:15 41.62262 -81.57328 38877 ft 559 kts 73°
2026-05-09 04:15 41.64116 -81.47327 38886 ft 558 kts 73°
2026-05-09 04:16 41.65975 -81.37255 38881 ft 559 kts 73°
2026-05-09 04:16 41.67820 -81.27205 38870 ft 559 kts 74°
2026-05-09 04:17 41.69653 -81.17161 38863 ft 560 kts 74°
2026-05-09 04:17 41.71482 -81.07088 38862 ft 559 kts 74°
2026-05-09 04:18 41.73300 -80.97025 38862 ft 560 kts 74°
2026-05-09 04:18 41.75119 -80.86900 38862 ft 560 kts 74°
2026-05-09 04:19 41.76918 -80.76826 38872 ft 560 kts 74°
2026-05-09 04:19 41.78714 -80.66723 38882 ft 561 kts 74°
2026-05-09 04:20 41.80509 -80.56606 38872 ft 560 kts 72°
2026-05-09 04:20 41.83063 -80.46869 38885 ft 557 kts 65°
2026-05-09 04:21 41.85799 -80.37167 38874 ft 558 kts 65°
2026-05-09 04:22 41.89832 -80.22511 38882 ft 559 kts 66°
2026-05-09 04:22 41.92487 -80.12709 38875 ft 561 kts 67°
2026-05-09 04:23 41.95133 -80.02854 38883 ft 561 kts 67°
2026-05-09 04:23 41.97756 -79.93021 38883 ft 561 kts 67°
2026-05-09 04:24 42.00358 -79.83211 38877 ft 561 kts 67°
2026-05-09 04:24 42.02977 -79.73289 38865 ft 560 kts 67°
2026-05-09 04:25 42.05555 -79.63477 38878 ft 559 kts 67°
2026-05-09 04:25 42.08139 -79.53605 38882 ft 562 kts 67°
2026-05-09 04:26 42.10720 -79.43697 38896 ft 560 kts 67°
2026-05-09 04:26 42.13272 -79.33857 38897 ft 559 kts 68°
2026-05-09 04:27 42.15796 -79.23998 38894 ft 560 kts 71°
2026-05-09 04:27 42.17081 -79.13612 38887 ft 564 kts 88°
2026-05-09 04:28 42.16317 -79.03173 38890 ft 562 kts 105°
2026-05-09 04:28 42.14050 -78.93182 38868 ft 559 kts 111°
2026-05-09 04:29 42.11604 -78.83263 38861 ft 562 kts 111°
2026-05-09 04:29 42.09116 -78.73292 38856 ft 560 kts 111°
2026-05-09 04:30 42.06629 -78.63405 38862 ft 561 kts 111°
2026-05-09 04:30 42.04124 -78.53511 38876 ft 560 kts 111°
2026-05-09 04:31 42.01610 -78.43637 38884 ft 559 kts 111°
2026-05-09 04:31 41.99086 -78.33774 38883 ft 560 kts 112°
2026-05-09 04:32 41.96548 -78.23900 38862 ft 561 kts 112°
2026-05-09 04:32 41.94009 -78.14063 38887 ft 562 kts 112°
2026-05-09 04:33 41.91426 -78.04102 38888 ft 560 kts 112°
2026-05-09 04:33 41.88854 -77.94225 38884 ft 562 kts 112°
2026-05-09 04:34 41.86270 -77.84341 38895 ft 561 kts 112°
2026-05-09 04:34 41.83673 -77.74449 38894 ft 564 kts 112°
2026-05-09 04:35 41.81058 -77.64529 38907 ft 563 kts 112°
2026-05-09 04:35 41.78436 -77.54627 38911 ft 565 kts 112°
2026-05-09 04:36 41.75818 -77.44772 38919 ft 562 kts 112°
2026-05-09 04:36 41.73178 -77.34881 38931 ft 566 kts 113°
2026-05-09 04:37 41.70533 -77.25008 38912 ft 562 kts 113°
2026-05-09 04:37 41.67876 -77.15130 38903 ft 564 kts 113°
2026-05-09 04:38 41.65251 -77.05409 38915 ft 558 kts 114°
2026-05-09 04:38 41.62620 -76.95712 38908 ft 558 kts 113°
2026-05-09 04:39 41.59973 -76.85988 38916 ft 556 kts 113°
2026-05-09 04:39 41.57327 -76.76309 38913 ft 556 kts 113°
2026-05-09 04:40 41.54678 -76.66656 38919 ft 558 kts 113°
2026-05-09 04:40 41.52002 -76.56943 38927 ft 557 kts 113°
2026-05-09 04:41 41.49314 -76.47214 38924 ft 558 kts 113°
2026-05-09 04:41 41.46609 -76.37460 38903 ft 557 kts 113°
2026-05-09 04:41 41.45282 -76.32684 38403 ft 552 kts 114°
2026-05-09 04:42 41.43940 -76.27874 37415 ft 561 kts 114°
2026-05-09 04:42 41.42572 -76.22984 36427 ft 569 kts 114°
2026-05-09 04:42 41.41197 -76.18070 35525 ft 575 kts 114°
2026-05-09 04:42 41.39806 -76.13111 34623 ft 580 kts 114°
2026-05-09 04:43 41.38382 -76.08041 33670 ft 586 kts 113°
2026-05-09 04:43 41.36951 -76.02956 32637 ft 590 kts 112°
2026-05-09 04:43 41.35516 -75.97862 31565 ft 592 kts 112°
2026-05-09 04:43 41.34073 -75.92753 30577 ft 593 kts 113°
2026-05-09 04:44 41.32645 -75.87704 29950 ft 585 kts 112°
2026-05-09 04:44 41.31218 -75.82664 29411 ft 573 kts 112°
2026-05-09 04:44 41.29826 -75.77761 28850 ft 562 kts 113°
2026-05-09 04:44 41.28459 -75.72958 28274 ft 552 kts 112°
2026-05-09 04:45 41.27124 -75.68281 27699 ft 542 kts 113°
2026-05-09 04:45 41.25690 -75.63744 27116 ft 532 kts 116°
2026-05-09 04:45 41.24165 -75.59237 26529 ft 526 kts 117°
2026-05-09 04:45 41.22683 -75.54874 25949 ft 521 kts 116°
2026-05-09 04:46 41.21200 -75.50500 25361 ft 516 kts 117°
2026-05-09 04:46 41.19742 -75.46195 24763 ft 511 kts 116°
2026-05-09 04:46 41.18310 -75.41966 24188 ft 506 kts 116°
2026-05-09 04:46 41.16871 -75.37714 23591 ft 502 kts 116°
2026-05-09 04:47 41.15443 -75.33495 23002 ft 498 kts 117°
2026-05-09 04:47 41.14052 -75.29384 22612 ft 488 kts 117°
2026-05-09 04:47 41.12671 -75.25303 22570 ft 488 kts 117°
2026-05-09 04:47 41.11272 -75.21178 22517 ft 494 kts 117°
2026-05-09 04:48 41.09857 -75.17005 22390 ft 492 kts 117°
2026-05-09 04:48 41.08462 -75.12895 22247 ft 490 kts 117°
2026-05-09 04:48 41.07058 -75.08762 22103 ft 486 kts 117°
2026-05-09 04:48 41.05671 -75.04687 21967 ft 486 kts 116°
2026-05-09 04:49 41.04286 -75.00626 21829 ft 485 kts 117°
2026-05-09 04:49 41.02908 -74.96587 21678 ft 482 kts 116°
2026-05-09 04:49 41.01535 -74.92568 21542 ft 482 kts 117°
2026-05-09 04:49 41.00206 -74.88457 21398 ft 482 kts 111°
2026-05-09 04:50 40.99336 -74.84202 21274 ft 482 kts 101°
2026-05-09 04:50 40.98780 -74.79826 21132 ft 480 kts 98°
2026-05-09 04:50 40.98276 -74.75530 20982 ft 478 kts 98°
2026-05-09 04:50 40.97762 -74.71142 20855 ft 478 kts 98°
2026-05-09 04:51 40.97253 -74.66804 20726 ft 478 kts 98°
2026-05-09 04:51 40.96748 -74.62517 20570 ft 476 kts 98°
2026-05-09 04:51 40.96236 -74.58180 20448 ft 475 kts 98°
2026-05-09 04:51 40.95726 -74.53878 20308 ft 474 kts 98°
2026-05-09 04:52 40.95216 -74.49589 20168 ft 472 kts 98°
2026-05-09 04:52 40.94711 -74.45356 20036 ft 469 kts 98°
2026-05-09 04:52 40.94201 -74.41097 19902 ft 468 kts 98°
2026-05-09 04:52 40.93695 -74.36880 19774 ft 466 kts 98°
2026-05-09 04:53 40.93186 -74.32656 19634 ft 466 kts 99°
2026-05-09 04:53 40.92676 -74.28434 19483 ft 464 kts 99°
2026-05-09 04:53 40.92166 -74.24233 19319 ft 452 kts 99°
2026-05-09 04:53 40.91682 -74.20257 19206 ft 432 kts 99°
2026-05-09 04:54 40.91208 -74.16399 19091 ft 414 kts 101°
2026-05-09 04:54 40.90486 -74.12868 18979 ft 396 kts 112°
2026-05-09 04:54 40.89320 -74.09623 18716 ft 384 kts 123°
2026-05-09 04:54 40.87909 -74.06572 17743 ft 400 kts 125°
2026-05-09 04:55 40.86407 -74.03441 16736 ft 414 kts 125°
2026-05-09 04:55 40.84843 -74.00205 15843 ft 421 kts 126°
2026-05-09 04:55 40.83260 -73.96945 15009 ft 426 kts 126°
2026-05-09 04:55 40.81644 -73.93624 14154 ft 430 kts 125°
2026-05-09 04:56 40.80091 -73.90266 13262 ft 430 kts 123°
2026-05-09 04:56 40.78574 -73.86910 12408 ft 423 kts 123°
2026-05-09 04:56 40.77107 -73.83649 11859 ft 406 kts 123°
2026-05-09 04:56 40.75716 -73.80539 11831 ft 378 kts 123°
2026-05-09 04:57 40.74442 -73.77683 11826 ft 353 kts 123°
2026-05-09 04:57 40.73238 -73.74977 11818 ft 331 kts 123°
2026-05-09 04:57 40.72101 -73.72438 11691 ft 316 kts 123°
2026-05-09 04:57 40.70995 -73.69949 11256 ft 315 kts 123°
2026-05-09 04:58 40.69910 -73.67490 11230 ft 303 kts 123°
2026-05-09 04:58 40.68893 -73.65152 11230 ft 290 kts 123°
2026-05-09 04:58 40.67897 -73.62857 11008 ft 288 kts 123°
2026-05-09 04:58 40.66899 -73.60548 10571 ft 292 kts 123°
2026-05-09 04:59 40.65894 -73.58230 10124 ft 293 kts 123°
2026-05-09 04:59 40.64891 -73.55911 9676 ft 289 kts 123°
2026-05-09 04:59 40.63929 -73.53687 9235 ft 270 kts 123°
2026-05-09 04:59 40.63024 -73.51598 8804 ft 259 kts 123°
2026-05-09 05:00 40.62155 -73.49590 8374 ft 251 kts 123°
2026-05-09 05:00 40.61311 -73.47613 7937 ft 244 kts 123°
2026-05-09 05:00 40.60483 -73.45686 7450 ft 241 kts 123°
2026-05-09 05:00 40.59666 -73.43782 6900 ft 240 kts 122°
2026-05-09 05:01 40.58848 -73.41892 6341 ft 239 kts 123°
2026-05-09 05:01 40.58028 -73.39982 5791 ft 237 kts 123°
2026-05-09 05:01 40.57233 -73.38128 5254 ft 233 kts 123°
2026-05-09 05:01 40.56393 -73.36372 4691 ft 223 kts 136°
2026-05-09 05:02 40.55128 -73.35369 4131 ft 206 kts 168°
2026-05-09 05:02 40.53768 -73.35068 3633 ft 193 kts 187°
2026-05-09 05:02 40.52589 -73.35698 3108 ft 180 kts 221°
2026-05-09 05:02 40.51983 -73.37006 2890 ft 173 kts 258°
2026-05-09 05:03 40.51970 -73.38587 2720 ft 174 kts 268°
2026-05-09 05:03 40.51995 -73.40190 2570 ft 169 kts 268°
2026-05-09 05:03 40.52021 -73.41653 2439 ft 152 kts 268°
2026-05-09 05:03 40.52045 -73.43008 2337 ft 152 kts 267°
2026-05-09 05:04 40.52069 -73.44394 2231 ft 150 kts 267°
2026-05-09 05:04 40.52092 -73.45759 2124 ft 150 kts 267°
2026-05-09 05:04 40.52116 -73.47159 2020 ft 152 kts 267°
2026-05-09 05:04 40.52159 -73.48547 1907 ft 154 kts 274°
2026-05-09 05:05 40.52483 -73.49876 1790 ft 155 kts 289°
2026-05-09 05:05 40.53006 -73.51138 1685 ft 156 kts 295°
2026-05-09 05:05 40.53567 -73.52361 1717 ft 158 kts 296°
2026-05-09 05:05 40.54142 -73.53597 1721 ft 156 kts 295°
2026-05-09 05:06 40.54696 -73.54793 1721 ft 150 kts 295°
2026-05-09 05:06 40.55237 -73.55966 1716 ft 149 kts 296°
2026-05-09 05:06 40.55778 -73.57146 1715 ft 151 kts 296°
2026-05-09 05:06 40.56316 -73.58316 1714 ft 151 kts 296°
2026-05-09 05:07 40.56854 -73.59487 1718 ft 149 kts 296°
2026-05-09 05:07 40.57388 -73.60654 1719 ft 147 kts 295°
2026-05-09 05:07 40.57912 -73.61798 1718 ft 142 kts 295°
2026-05-09 05:07 40.58413 -73.62893 1719 ft 139 kts 295°
2026-05-09 05:08 40.58911 -73.63983 1722 ft 138 kts 295°
2026-05-09 05:08 40.59412 -73.65080 1724 ft 139 kts 295°
2026-05-09 05:08 40.59911 -73.66168 1721 ft 138 kts 295°
2026-05-09 05:08 40.60409 -73.67260 1591 ft 139 kts 295°
2026-05-09 05:09 40.60908 -73.68354 1409 ft 139 kts 296°
2026-05-09 05:09 40.61405 -73.69437 1227 ft 139 kts 296°
2026-05-09 05:09 40.61907 -73.70539 1037 ft 141 kts 297°
2026-05-09 05:09 40.62409 -73.71637 847 ft 140 kts 298°
2026-05-09 05:10 40.62913 -73.72741 657 ft 141 kts 299°
2026-05-09 05:10 40.63417 -73.73848 464 ft 139 kts 300°
2026-05-09 05:10 40.63915 -73.74934 281 ft 138 kts 301°
2026-05-09 05:10 40.64410 -73.76015 80 ft 138 kts 302°
2026-05-09 05:11 40.64864 -73.77017 22 ft 98 kts 300°
2026-05-09 05:11 40.65093 -73.77531 22 ft 55 kts 301°
2026-05-09 05:11 40.65266 -73.77915 22 ft 39 kts 294°
2026-05-09 05:11 40.65304 -73.78101 22 ft 10 kts 275°
2026-05-09 05:12 40.65305 -73.78110 22 ft 1 kts 275°
2026-05-09 05:12 40.65310 -73.78200 22 ft 15 kts 273°
2026-05-09 05:12 40.65316 -73.78298 22 ft 3 kts 281°
2026-05-09 05:12 40.65319 -73.78316 22 ft 0 kts 284°
2026-05-09 05:13 40.65324 -73.78338 22 ft 5 kts 289°
2026-05-09 05:13 40.65346 -73.78383 22 ft 0 kts 307°
2026-05-09 05:13 40.65356 -73.78442 22 ft 13 kts 252°
2026-05-09 05:14 40.65352 -73.78459 22 ft 0 kts 275°
2026-05-09 05:14 40.65352 -73.78464 22 ft 1 kts 264°
2026-05-09 05:14 40.65349 -73.78475 22 ft 2 kts 247°
2026-05-09 05:14 40.65337 -73.78512 22 ft 6 kts 245°
2026-05-09 05:15 40.65318 -73.78566 22 ft 7 kts 245°
2026-05-09 05:15 40.65288 -73.78638 22 ft 10 kts 241°
2026-05-09 05:15 40.65245 -73.78741 22 ft 14 kts 242°
2026-05-09 05:15 40.65213 -73.78875 22 ft 15 kts 266°
2026-05-09 05:16 40.65214 -73.78922 22 ft 2 kts 266°
2026-05-09 05:16 40.65190 -73.78957 22 ft 6 kts 222°
2026-05-09 05:16 40.65171 -73.78977 22 ft 2 kts 216°
2026-05-09 05:16 40.65151 -73.78963 22 ft 10 kts 124°
2026-05-09 05:17 40.65094 -73.78912 22 ft 6 kts 172°
2026-05-09 05:17 40.65056 -73.78925 22 ft 0 kts 221°
2026-05-09 05:17 40.65055 -73.78925 22 ft 0 kts 221°
2026-05-09 05:17 40.65051 -73.78929 22 ft 6 kts 210°
2026-05-09 05:18 40.64990 -73.78961 22 ft 8 kts 192°
2026-05-09 05:18 40.64948 -73.78977 22 ft 0 kts 198°
2026-05-09 05:18 40.64938 -73.78982 22 ft 0 kts 200°
2026-05-09 05:18 40.64936 -73.78982 22 ft 0 kts 199°